Regional Weather Roundup
Issued by NWS

Home | Current Version | Previous Version | Text Only | Print | Product List | Glossary Off
Versions: 1 2 3 4 5 6 7 8 9 10 11 12 13 14 15 16 17 18 19 20 21 22 23 24 25 26 27 28 29 30 31 32 33 34 35 36 37 38 39 40 41 42 43 44 45 46 47 48 49 50

000
ASUS45 KABQ 270501
RWRNM
NEW MEXICO REGIONAL WEATHER ROUNDUP
NATIONAL WEATHER SERVICE ALBUQUERQUE NM
1100 PM MDT SUN MAR 26 2017

NOTE: "FAIR" MEANS FEW OR NO CLOUDS BELOW 12,000 FEET AGL WITH NO
       SIGNIFICANT WEATHER OR OBSTRUCTIONS TO VISION.

      THIS PRODUCT IS RELEASED AS TWO VERSIONS.  ONE VERSION NEAR
      THE TOP OF THE HOUR CONTAINING PRELIMINARY DATA FROM ALBUQUERQUE
      AND OTHER STATIONS.  A FINAL VERSION WITH ADDITIONAL DATA IS
      ISSUED ABOUT 10 MINUTES AFTER THE HOUR.

NMZ501-503-504-510>518-270600-
NORTHWEST PLATEAU/NORTHCENTRAL MOUNTAINS

CITY           SKY/WX    TMP DP  RH WIND       PRES   REMARKS
FARMINGTON     FAIR      49  28  44 CALM      29.99S
LOS ALAMOS     FAIR      46  20  35 W12       30.05S
SANTA FE       FAIR      39  25  57 N3        30.01F
TAOS             N/A     36  25  64 S3        30.04S
ANGEL FIRE     CLOUDY    37  29  72 CALM      30.07S

$$
NMZ402-403-502-505>509-270600-
WESTCENTRAL MOUNTAINS/SOUTHWEST MOUNTAINS

CITY           SKY/WX    TMP DP  RH WIND       PRES   REMARKS
GALLUP         FAIR      40  29  64 CALM      30.06S
GRANTS         FAIR      46  24  41 N6        30.07F
SILVER CITY    FAIR      46  19  34 NW5       30.05S

$$
NMZ407-409-411-412-270600-
SOUTHERN DESERTS

CITY           SKY/WX    TMP DP  RH WIND       PRES   REMARKS
DEMING         FAIR      53  19  26 W9        29.99S
LAS CRUCES     FAIR      60  16  18 W10       29.99S
HOLLOMAN AFB   FAIR      57  18  21 SE7       30.00R
ALAMOGORDO     FAIR      54  23  30 SE9       29.98S
T OR C         FAIR      54  19  25 W8        29.99R

$$
NMZ519>523-270600-
CENTRAL VALLEYS/CENTRAL HIGHLANDS

CITY           SKY/WX    TMP DP  RH WIND       PRES   REMARKS
ALBUQUERQUE    MOCLDY    53  24  32 W6        30.02R
MORIARTY ARPT  FAIR      47  24  40 CALM      30.04S
CLINES CORNERS FAIR      43  21  41 NW7       30.06S
BELEN          FAIR      47  20  34 N7        30.01S
SOCORRO        FAIR      58  15  18 N7        29.98S

$$
NMZ524>526-539-540-270600-
SOUTHCENTRAL MOUNTAINS

CITY           SKY/WX    TMP DP  RH WIND       PRES   REMARKS
RUIDOSO        NOT AVBL

$$
NMZ527>531-270600-
NORTHEAST HIGHLANDS/NORTHEAST PLAINS

CITY           SKY/WX    TMP DP  RH WIND       PRES   REMARKS
LAS VEGAS      FAIR      41  30  65 E8        30.03S
RATON          FAIR      38  32  79 E7        29.99F WCI  33
CLAYTON        FAIR      39  37  92 NW9       29.98S WCI  33

$$
NMZ532>537-270600-
EASTCENTRAL PLAINS

CITY           SKY/WX    TMP DP  RH WIND       PRES   REMARKS
TUCUMCARI      FAIR      46  33  60 NE7       29.96R
CANNON AFB     FAIR      47  36  63 N13       29.96R
CLOVIS AIRPORT FAIR      46  34  61 N14       29.97R

$$
NMZ028-029-538-270600-
SOUTHEAST PLAINS

CITY           SKY/WX    TMP DP  RH WIND       PRES   REMARKS
ROSWELL        FAIR      61  14  16 W9          N/A
ARTESIA        FAIR      54  16  22 NW9       29.92R
CARLSBAD       FAIR      62  18  18 W15       29.90R
HOBBS          FAIR      50  14  23 SW7       29.92S


$$




USA.gov is the U.S. government's official web portal to all federal, state and local government web resources and services.